Regional Weather Roundup
Issued by NWS

Home | Current Version | Previous Version | Graphics & Text | Print | Product List | Glossary On
Versions: 1 2 3 4 5 6 7 8 9 10 11 12 13 14 15 16 17 18 19 20 21 22 23 24 25 26 27 28 29 30 31 32 33 34 35 36 37 38 39 40 41 42 43 44 45 46 47 48 49 50
000
ASUS43 KDTX 261210
RWRMI
MICHIGAN HOURLY REGIONAL WEATHER ROUNDUP
NATIONAL WEATHER SERVICE DETROIT/PONTIAC MI
800 AM EDT THU MAR 26 2015

NOTE: "FAIR" INDICATES FEW OR NO CLOUDS BELOW 12,000 FEET WITH NO
SIGNIFICANT WEATHER AND/OR OBSTRUCTION TO VISIBILITY.

MIZ047>049-052>055-059>063-066>070-074>076-081>083-261300-
SOUTHEAST LOWER MICHIGAN

CITY           SKY/WX    TMP DP  RH WIND       PRES   REMARKS
ADRIAN         LGT RAIN  36  33  89 CALM      29.91S FOG
6HR MIN TEMP:  36; 6HR MAX TEMP:  41; 6HR PCP: TRACE;

ALMA           CLOUDY    35  31  86 SW3       29.88R
ANN ARBOR      CLOUDY    36  32  85 CALM      29.90R
BAD AXE        CLOUDY    34  31  88 SW5       29.85R
DETROIT CITY   LGT RAIN  40  33  76 S3        29.90S
6HR MIN TEMP:  40; 6HR MAX TEMP:  43; 6HR PCP: TRACE;

DETROIT        RAIN      38  35  89 S7        29.91R FOG
6HR MIN TEMP:  38; 6HR MAX TEMP:  42; 6HR PCP: TRACE;

FLINT          CLOUDY    37  31  78 SW5       29.89S
6HR MIN TEMP:  37; 6HR MAX TEMP:  39;

GROSSE ILE     LGT RAIN  36  34  93 S5        29.90R
HILLSDALE      CLOUDY    35  32  87 NW3       29.89R
HOWELL         CLOUDY    35  32  90 SW3       29.88R FOG
6HR MIN TEMP:  34; 6HR MAX TEMP:  38;


CITY           SKY/WX    TMP DP  RH WIND       PRES   REMARKS
JACKSON        CLOUDY    35  30  82 W5        29.89R
6HR MIN TEMP:  35; 6HR MAX TEMP:  39;

LAMBERTVILLE   LGT SNOW  34  32  93 CALM      29.92S
LANSING        CLOUDY    34  30  85 W6        29.90R
6HR MIN TEMP:  34; 6HR MAX TEMP:  38;

LAPEER         NOT AVBL
MASON          CLOUDY    34  30  86 CALM      29.89S
MONROE         LGT RAIN  34  34 100 CALM      29.90S
MT. CLEMENS    CLOUDY    38  33  81 CALM      29.86F
6HR MIN TEMP:  36; 6HR MAX TEMP:  40;

PONTIAC        CLOUDY    36  32  85 SW3       29.88R
6HR MIN TEMP:  35; 6HR MAX TEMP:  38;

PORT HOPE        N/A     35  29  78 W5        29.82F
6HR MIN TEMP:  35; 6HR MAX TEMP:  38;

PORT HURON     CLOUDY    34  32  93 CALM      29.89F
TRI CITIES     CLOUDY    36  31  82 SW7       29.87R
6HR MIN TEMP:  36; 6HR MAX TEMP:  38;

YPSILANTI      LGT RAIN  40  33  76 CALM      29.90S
6HR MIN TEMP:  40; 6HR MAX TEMP:  43; 6HR PCP: TRACE;

$$
MIZ043>046-050>051-056>058-064>065-071>073-077>080-261300-
SOUTHWEST LOWER MICHIGAN

CITY           SKY/WX    TMP DP  RH WIND       PRES   REMARKS
BATTLE CREEK   CLOUDY    35  29  78 W6        29.91R
6HR MIN TEMP:  35; 6HR MAX TEMP:  38;

BENTON HARBOR  CLOUDY    34  30  85 NW7       29.94R
6HR MIN TEMP:  33; 6HR MAX TEMP:  36;

BIG RAPIDS     CLOUDY    35  28  77 W6        29.85R
6HR MIN TEMP:  34; 6HR MAX TEMP:  37;

COLDWATER      CLOUDY    35  29  80 NW3       29.91R
6HR MIN TEMP:  35; 6HR MAX TEMP:  39;

HOLLAND        CLOUDY    36  27  69 W6        29.92R
6HR MIN TEMP:  36; 6HR MAX TEMP:  38;

GRAND RAPIDS   CLOUDY    35  26  69 W7        29.90R
6HR MIN TEMP:  35; 6HR MAX TEMP:  37;

KALAMAZOO      CLOUDY    35  29  78 W5        29.91S
6HR MIN TEMP:  35; 6HR MAX TEMP:  38;

MARSHALL       CLOUDY    33  29  86 MISG      29.90R
MUSKEGON       CLOUDY    36  27  69 W9        29.91R
6HR MIN TEMP:  36; 6HR MAX TEMP:  38;

$$
MIZ016>042-261300-
NORTHERN LOWER MICHIGAN

CITY           SKY/WX    TMP DP  RH WIND       PRES   REMARKS
ALPENA         CLOUDY    34  27  75 SW5       29.82S
6HR MIN TEMP:  33; 6HR MAX TEMP:  38;

BEAVER ISLAND  CLOUDY    33  29  86 W12       29.80R
6HR MIN TEMP:  33; 6HR MAX TEMP:  35;

BELLAIRE       CLOUDY    36  26  67 CALM      29.83R
6HR MIN TEMP:  36; 6HR MAX TEMP:  38;

CADILLAC       CLOUDY    34  25  69 W5        29.82S
CHARLEVOIX     CLOUDY    34  29  80 W10       29.84R
6HR MIN TEMP:  34; 6HR MAX TEMP:  37;

FRANKFORT      CLOUDY    37  26  62 NW9       29.85S
GAYLORD        CLOUDY    32  25  75 W5        29.79R
6HR MIN TEMP:  32; 6HR MAX TEMP:  34;

GRAYLING       CLOUDY    34  25  70 W5        29.82R
6HR MIN TEMP:  33; 6HR MAX TEMP:  35;

HARBOR SPRINGS CLOUDY    33  28  79 W6        29.81R
HOUGHTON LAKE  CLOUDY    34  27  75 W6        29.83R
6HR MIN TEMP:  34; 6HR MAX TEMP:  35;

MANISTEE       CLOUDY    36  27  69 W9        29.88R
OSCODA         CLOUDY    33  31  94 SW6       29.83R
PELLSTON       CLOUDY    35  27  72 W8        29.80R
6HR MIN TEMP:  35; 6HR MAX TEMP:  37;

TRAVERSE CITY  CLOUDY    36  25  64 W8        29.83R
6HR MIN TEMP:  36; 6HR MAX TEMP:  39;

$$
MIZ007>008-015-261300-
EASTERN UPPER MICHIGAN

CITY           SKY/WX    TMP DP  RH WIND       PRES   REMARKS
KINROSS        CLOUDY    34  32  93 W5        29.76S
6HR MIN TEMP:  34; 6HR MAX TEMP:  36;

MACKINAC ISLAN CLOUDY    34  29  83 W8        29.78R
6HR MIN TEMP:  34; 6HR MAX TEMP:  36;

NEWBERRY       LGT SNOW  31  30  94 W13       29.76R
S. S. MARIE    LGT SNOW  33  31  92 W8        29.76R FOG
6HR MIN TEMP:  33; 6HR MAX TEMP:  34; 6HR PCP:  0.01;

$$
MIZ004>006-011>014-085-261300-
CENTRAL UPPER MICHIGAN

CITY           SKY/WX    TMP DP  RH WIND       PRES   REMARKS
MANISTIQUE     CLOUDY    33  28  80 W12       29.79R
ESCANABA       CLOUDY    34  21  60 NW16G24   29.82R
6HR MIN TEMP:  34; 6HR MAX TEMP:  37;

MENOMINEE      CLOUDY    36  23  60 NW9       29.86R
6HR MIN TEMP:  34; 6HR MAX TEMP:  37;

SAWYER-GWINN   CLOUDY    28  23  80 NW16G23   29.80R
$$
MIZ001>003-009>011-084-261300-
WESTERN UPPER MICHIGAN

CITY           SKY/WX    TMP DP  RH WIND       PRES   REMARKS
IRON MOUNTAIN  CLOUDY    29  20  69 NW10      29.85R
6HR MIN TEMP:  29; 6HR MAX TEMP:  34;

HOUGHTON       CLOUDY    17  13  84 N21G30    29.91R FOG
6HR MIN TEMP:  17; 6HR MAX TEMP:  31; 6HR PCP:  0.07;

COPPER HARBOR    N/A     22  17  81 N26G35    29.91R
6HR MIN TEMP:  21; 6HR MAX TEMP:  34; 6HR PCP:  0.01;

IRONWOOD       CLOUDY    21  16  79 NW18      29.95R
6HR MIN TEMP:  21; 6HR MAX TEMP:  32;

$$

ABBREVIATIONS USED IN REMARKS
   TC - TEMPERATURE IN CELSIUS
  WCI - WIND CHILL INDEX
   HX - HEAT INDEX
  VSB - VISIBILITY




USA.gov is the U.S. government's official web portal to all federal, state and local government web resources and services.